GLOBALSTAR M064 (26084 NORAD) Tracking and Keplerian Element Data

This shows tracking and keplerian element data for the satellite.

Feedback or suggestion? Click here.




ElementValue
Catalog26084
NameGLOBALSTAR M064
Epoch Orbit15123
Epoch Day34.76147686
Epoch Year2025
RAAN203.3672
Inclination52
Eccentricity0.0002289
Argument of Perigee134.3186
Mean Anonmoly225.7835
Mean Motion11.88529908
Decay Rate-7.7E-07
L11 26084U 00008D 25034.76147686 -.00000077 00000+0 88217-4 0 9991
L22 26084 52.0000 203.3672 0002289 134.3186 225.7835 11.88529908151234



Live tracking and technical data element details for GLOBALSTAR M064 (NORAD 26084). GLOBALSTAR M064 can be tracked NOW for your location showing map with azimuth and elevation plus other details from your city location.







IsCatalogInMostPopularTable: catalog: 26084, numindb: 288
Update: records affected: 1



GetName: 26084 GLOBALSTAR M064

Hit Count: updated at: Sat, 24 May 2025 16:52:18 GMT